#timestamp,LO_Frequency,Hit,StdDev 
1587506415.2,286047001.7,N
1587506435.0,286047002.5,N
1587506435.9,286047002.5,N
1587506455.8,286047001.1,N
1587506475.6,286046999.6,N
1587506495.5,286046999.0,N
1587506515.3,286046999.3,N
1587506535.1,286047001.0,N
1587506555.9,286047001.1,N
1587506575.7,286046999.2,N
1587506595.6,286046997.2,N
1587506615.4,286046997.8,N
1587506635.2,286046998.7,N
1587506655.1,286046999.4,N
1587506656.0,286046999.4,N
1587506675.8,286047000.5,N
1587506695.6,286047002.8,N
1587506715.5,286046999.5,N
1587506735.3,286046998.6,N
1587506755.2,286046999.7,N
1587506775.9,286047001.4,N
1587506795.7,286047001.9,N
1587506815.6,286046998.9,N
1587506835.4,286046998.5,N
1587506855.3,286047000.6,N
1587506875.1,286047000.7,N
1587506876.0,286047000.7,N
1587506895.8,286047000.5,N
1587506915.7,286047000.7,N
1587506935.5,286047002.2,N
1587506955.3,286047001.8,N
1587506975.2,286047005.6,Y
1587506995.0,286047004.0,P
1587506995.9,286047004.0,N
1587507015.8,286047000.4,N
1587507035.6,286047000.8,N
1587507055.4,286046999.9,N
1587507075.3,286046999.0,N
1587507095.1,286046996.9,N
1587507115.9,286047001.2,N
1587507135.7,286047004.4,N
1587507155.5,286047004.0,N
1587507175.4,286046999.7,N
1587507195.2,286046998.2,N
1587507215.0,286047001.1,N
1587507216.0,286047001.1,N
1587507235.8,286047002.5,N
1587507255.6,286047002.5,N
1587507275.5,286046998.4,N
1587507295.3,286046999.1,N
1587507315.1,286046997.4,N
1587507335.9,286046998.0,N
1587507355.7,286047001.0,N
1587507375.6,286047000.4,N
1587507395.4,286046997.4,N
1587507415.2,286046999.4,N
1587507435.1,286046999.3,N
1587507436.0,286046999.3,N
1587507455.8,286047000.6,N
1587507475.6,286047000.2,N
1587507495.5,286046999.7,N
1587507515.3,286046998.3,N
1587507535.2,286047002.5,N
1587507555.9,286047000.4,N
1587507575.7,286046999.0,N
1587507595.6,286047002.8,N
1587507615.4,286046999.9,N
1587507635.3,286046998.3,N
1587507655.1,286047001.7,N
1587507656.0,286047001.7,N
1587507675.8,286047004.4,N
1587507695.7,286047001.7,N
1587507715.5,286047004.0,N
1587507735.4,286047000.2,N
1587507755.2,286046998.9,N
1587507775.0,286046997.3,N
1587507775.9,286046997.3,N
1587507795.8,286046997.1,N
1587507815.6,286046998.9,N
1587507835.5,286047001.0,N
1587507855.3,286047002.6,N
1587507875.1,286046998.1,N
1587507895.9,286046995.5,N
1587507915.7,286047001.1,N
1587507935.6,286046999.1,N
1587507955.4,286046997.7,N
1587507975.2,286046999.9,N
1587507995.1,286047000.7,N
1587507996.0,286047000.7,N
1587508015.8,286047001.0,N
1587508035.6,286047002.8,N
1587508055.5,286047002.3,N
1587508075.3,286046998.5,N
1587508095.2,286046999.6,N
1587508115.9,286047000.4,N
1587508135.7,286046996.9,N
1587508155.6,286046999.3,N
1587508175.4,286046998.9,N
1587508195.3,286046996.5,N
1587508215.1,286047000.2,N
1587508216.0,286047000.2,N
1587508235.8,286047000.9,N
1587508255.7,286046999.6,N
1587508275.5,286047001.2,N
1587508295.3,286047002.6,N
1587508315.2,286047000.5,N
1587508335.0,286046999.5,N
1587508335.9,286046999.5,N
1587508355.8,286046998.5,N
1587508375.6,286047000.6,N
1587508395.4,286046999.9,N
1587508415.3,286047001.1,N
1587508435.1,286047000.9,N
1587508455.9,286047000.6,N
1587508475.7,286046998.4,N
1587508495.5,286046999.6,N
1587508515.4,286046998.9,N
1587508535.2,286046996.8,N
1587508555.1,286046996.8,N
1587508556.0,286046996.8,N
1587508575.8,286046999.2,N
1587508595.6,286046998.6,N
1587508615.5,286047002.7,N
1587508635.3,286046998.9,N
1587508655.1,286046999.0,N
1587508675.9,286046998.3,N
1587508695.7,286046999.0,N
1587508715.6,286046997.4,N
1587508735.4,286046997.4,N
1587508755.2,286046997.5,N
1587508775.1,286046996.8,N
1587508776.0,286046996.8,N
1587508795.8,286046998.9,N
1587508815.7,286046994.9,Y
1587508835.5,286046999.5,P
1587508855.3,286046999.0,P
1587508875.2,286046995.0,P
1587508895.0,286046996.0,N
1587508895.9,286046996.0,N
1587508915.8,286046997.1,N
1587508935.6,286046997.7,N
1587508955.4,286046996.7,N
1587508975.3,286046997.4,N
1587508995.1,286046995.9,N
1587509015.8,286046995.7,Y
1587509035.7,286047000.0,P
1587509055.5,286047000.8,N
1587509075.4,286046998.1,N
1587509095.2,286046997.1,N
1587509115.0,286046995.1,Y
1587509115.9,286046995.1,P
1587509135.8,286046999.3,N
1587509155.6,286046996.5,N
1587509175.5,286046995.4,N
1587509195.3,286046997.5,N
1587509215.1,286046997.7,N
1587509235.9,286046997.0,N
1587509255.7,286046997.6,N
1587509275.5,286046997.4,N
1587509295.4,286046997.5,N
1587509315.2,286046998.2,N
1587509335.1,286046999.6,N
1587509336.0,286046999.6,N
1587509355.8,286046997.9,N
1587509375.6,286046997.3,N
1587509395.5,286046995.5,Y
1587509415.3,286046999.1,P
1587509435.2,286046998.8,N
1587509455.9,286046996.7,P
1587509475.7,286046997.4,N
1587509495.6,286046995.6,Y
1587509515.4,286046997.4,P
1587509535.3,286046997.4,P
1587509555.1,286046997.8,P
1587509556.0,286046997.8,Y
1587509575.8,286046999.0,P
1587509595.7,286047002.5,P
1587509615.5,286047004.4,N
1587509635.4,286047004.2,N
1587509655.2,286047001.3,N
1587509675.0,286047002.6,N
1587509675.9,286047002.6,N
1587509695.8,286047002.6,N
1587509715.6,286047002.5,N
1587509735.5,286047001.3,N
1587509755.3,286047000.3,N
1587509775.1,286047002.6,N
1587509795.9,286047002.4,N
1587509815.7,286047000.3,N
1587509835.5,286047001.2,N
1587509855.4,286047000.3,N
1587509875.2,286047000.8,N
1587509895.1,286046999.9,N
1587509896.0,286046999.9,N
1587509915.8,286047001.6,N
1587509935.6,286047001.3,N
1587509955.5,286047005.2,Y
1587509975.3,286047006.0,P
1587509995.2,286047003.7,N
